Torna al catalogo

STARLINK-6338

AttivoComunicazioniVLEO
NORAD 57364·PAYLOAD·🇺🇸 United States

Lanciato Jul 16, 2023 da Cape Canaveral Space Force Station

Loading…

Prossimi Passaggi (prossime 24 ore)

TLE

AggiornatoSource: CelesTrak SupGP

Epoca: Sep 15, 2026, 02:40 UTC

1 57364C 23099AN  26258.11159722 -.00021747  00000+0 -78779-3 0  2580
2 57364  43.0005 251.7095 0001451 266.0347  16.0310 15.27583755    17

Traccia STARLINK-6338 in tempo reale con AllMySat

Download on the App Store